Home   Weather   Charlottesville   Past weeks
Flag for USA

Past Weather in Charlottesville, Virginia, USA — Yesterday and Last 2 Weeks

Now
88 °F

Passing clouds.


Feels Like: 93 °F
Forecast: 86 / 69 °F
Wind: 6 mph from North

Location: Charlottesville-Albemarle Airport

Current Time: Jun 19, 2019 at 5:14:32 pm

Latest Report: Jun 19, 2019 at 3:53 pm


Visibility: 10 mi

Pressure: 29.71 "Hg

Humidity: 55%

Dew Point: 70 °F

Location of CharlottesvilleLocation

Past Weather in Charlottesville — Graph

°F

Charlottesville Temperature Yesterday

Maximum temperature yesterday: 88 °F (at 2:53 pm)
Minimum temperature yesterday: 70 °F (at 3:04 am)
Average temperature yesterday: 77 °F

High & Low Weather Summary for the Past Weeks

 TemperatureHumidityPressure
High91 °F (Jun 17, 1:53 pm)91% (Jun 10, 4:37 am)30.16 "Hg (Jun 10, 4:37 am)
Low52 °F (Jun 15, 5:53 am)29% (Jun 14, 5:53 pm)29.71 "Hg (Jun 19, 3:53 pm)
Average73 °F69%29.96 "Hg
* Reported Jun 4 3:53 pm — Jun 19 3:53 pm, Charlottesville. Weather by CustomWeather, © 2019

Note: Actual official high and low records may vary slightly from our data, if they occured in-between our weather recording intervals... More about our weather records

Advertising

Charlottesville Weather History for the Previous 24 Hours

Scroll right to see more
 ConditionsComfort  
Time TempWeatherWind HumidityBarometerVisibility
3:53 pm
Wed, Jun 19
88 °FPassing clouds.6 mph55%29.71 "Hg10 mi
2:53 pm85 °FPassing clouds.5 mph61%29.74 "Hg10 mi
1:53 pm85 °FPartly sunny.8 mph61%29.76 "Hg10 mi
12:53 pm82 °FPassing clouds.3 mph65%29.79 "Hg10 mi
12:08 pm81 °FBroken clouds.7 mph67%29.83 "Hg10 mi
11:53 am81 °FPartly sunny.7 mph69%29.81 "Hg10 mi
10:53 am78 °FOvercast.7 mph76%29.82 "Hg10 mi
9:53 am77 °FOvercast.9 mph77%29.83 "Hg10 mi
8:53 am77 °FScattered clouds.5 mph77%29.82 "Hg10 mi
7:53 am75 °FSunny.No wind79%29.82 "Hg10 mi
6:53 am71 °FSunny.3 mph90%29.81 "Hg10 mi
6:12 am70 °FScattered clouds.6 mph90%29.84 "Hg8 mi
5:32 am70 °FFog.3 mph90%29.84 "Hg0 mi
4:53 am70 °FFog.3 mph90%29.83 "Hg5 mi
4:37 am71 °FFog.5 mph87%29.85 "Hg1 mi
4:19 am71 °FPassing clouds.No wind87%29.86 "Hg8 mi
4:10 am71 °FPassing clouds.No wind87%29.86 "Hg10 mi
3:53 am70 °FClear.No wind90%29.84 "Hg10 mi
3:08 am70 °FPassing clouds.5 mph90%29.88 "Hg10 mi
2:53 am72 °FPassing clouds.No wind87%29.86 "Hg10 mi
2:33 am72 °FLow clouds.5 mph87%29.89 "Hg10 mi
1:53 am72 °FLow clouds.12 mph87%29.88 "Hg10 mi
1:23 am72 °FPassing clouds.14 mph87%29.91 "Hg10 mi
1:14 am72 °FPassing clouds.12 mph87%29.91 "Hg10 mi
12:53 am72 °FClear.8 mph87%29.88 "Hg10 mi
11:53 pm
Tue, Jun 18
72 °FClear.No wind87%29.88 "Hg10 mi
10:53 pm74 °FClear.3 mph82%29.89 "Hg10 mi
9:53 pm75 °FPassing clouds.3 mph79%29.89 "Hg10 mi
8:53 pm77 °FPassing clouds.8 mph74%29.89 "Hg10 mi
7:53 pm78 °FMostly cloudy.9 mph71%29.90 "Hg10 mi
6:53 pm79 °FLight rain. Mostly cloudy.10 mph69%29.89 "Hg10 mi
5:53 pm83 °FOvercast.No wind68%29.87 "Hg10 mi
Weather by CustomWeather, © 2019

See weather overview